Regional Weather Roundup
Issued by NWS Goodland, KS

Home | Current Version | Previous Version | Graphics & Text | Print | Product List | Glossary On
Versions: 1 2 3 4 5 6 7 8 9 10 11 12 13 14 15 16 17 18 19 20 21 22 23 24 25 26 27 28 29 30 31 32 33 34 35 36 37 38 39 40 41 42 43 44 45 46 47 48 49 50
000
ASUS43 KGLD 290659
RWRGLD

GOODLAND FORECAST AREA HOURLY WEATHER ROUNDUP
NATIONAL WEATHER SERVICE GOODLAND KS
100 AM MDT WED MAR 29 2017

...OFFICIAL OBSERVATIONS...

CITY           SKY/WX    TMP DP  RH WIND       PRES   REMARKS
GOODLAND KS    LGT RAIN  39  39 100 NE17      29.99F FOG
HILL CITY KS   LGT RAIN  43  43 100 NE17G28   29.98F FOG
IMPERIAL NEB   LGT RAIN  40  38  93 NE10      30.07R
MCCOOK NEB     LGT RAIN  42  42 100 N10       30.05R FOG
AKRON CO       LGT RAIN  37  35  92 NE8       30.05F
BURLINGTON CO  LGT RAIN  39  39 100 NE15      29.99F FOG
LIMON CO       LGT SNOW  32  32 100 N12       30.01S FOG
$$

...UNOFFICIAL OBSERVATIONS...

CITY           SKY/WX    TMP DP  RH WIND       PRES   REMARKS
NORTON KS      LGT RAIN  41  37  87 NE10G16   30.00F
SHARON SPRINGS   N/A     40  39  96 NE13G20     N/A
TRENTON NEB      N/A     41  32  70 NE6         N/A
KIT CARSON CO    N/A     38  35  90 MISG        N/A
YUMA CO        DRIZZLE   37  36  93 N12       30.05S
$$




USA.gov is the U.S. government's official web portal to all federal, state and local government web resources and services.